Terminal Aerodrome Forecast
Issued by NWS La Crosse, WI

Home | Current Version | Previous Version | Text Only | Print | Product List | Glossary On
Versions: 1 2 3 4 5 6 7 8 9 10 11 12 13 14 15 16 17 18 19 20 21 22 23 24 25 26 27 28 29 30 31 32 33 34 35 36 37 38 39 40 41 42 43 44 45 46 47 48 49 50
000
FTUS43 KARX 270522
TAFLSE
TAF
KLSE 270522Z 2706/2806 29009KT P6SM -SHRA OVC015
      TEMPO 2706/2707 SCT015 OVC040
     FM270900 29009KT P6SM OVC015
     FM271400 27010KT P6SM BKN050
     FM271700 26010KT P6SM SCT060
     FM280200 VRB03KT P6SM SKC=

USA.gov is the U.S. government's official web portal to all federal, state and local government web resources and services.